When you browse on this site, cookies collect data to enhance your experience and personalize the content and advertising you see.
Visit our Privacy Policy to learn more. By continuing to use the site, you agree to this use of cookies and data.
  • In Switzerland
  • List of Countries
  • For 7 days
  • Water Temperature
  • Satellite Maps
  • Weather Map
  • Weather Widgets
  • user-avatar
    Login

    Hourly Weather Hefei

    Today, 25 April, Thursday

    Time Temperature Precipitation Wind Pressure Humidity
    00:00 +23°C° 0 mm 2 mps 754 mmHg 78%
    01:00 +21°C° 0 mm 2 mps 753 mmHg 82%
    02:00 +21°C° 0 mm 2 mps 753 mmHg 83%
    03:00 +20°C° 0 mm 2 mps 753 mmHg 85%
    04:00 +20°C° 0 mm 2 mps 753 mmHg 86%
    05:00 +20°C° 0 mm 2 mps 752 mmHg 88%
    06:00 +21°C° 0 mm 2 mps 752 mmHg 83%
    07:00 +23°C° 0 mm 2 mps 753 mmHg 79%
    08:00 +24°C° 0 mm 1 mps 753 mmHg 72%
    09:00 +25°C° 0 mm 2 mps 754 mmHg 67%
    10:00 +27°C° 0 mm 3 mps 754 mmHg 62%
    11:00 +29°C° 0 mm 3 mps 754 mmHg 56%
    12:00 +29°C° 0.1 mm 4 mps 755 mmHg 57%
    13:00 +28°C° 0.1 mm 5 mps 755 mmHg 57%
    14:00 +28°C° 0.1 mm 5 mps 755 mmHg 58%
    15:00 +28°C° 0 mm 5 mps 755 mmHg 58%
    16:00 +28°C° 0 mm 5 mps 755 mmHg 58%
    17:00 +27°C° 0 mm 5 mps 755 mmHg 58%
    18:00 +25°C° 0 mm 5 mps 755 mmHg 63%
    19:00 +22°C° 0 mm 5 mps 756 mmHg 69%
    20:00 +20°C° 0 mm 6 mps 756 mmHg 75%
    21:00 +19°C° 0 mm 6 mps 757 mmHg 75%
    22:00 +17°C° 0 mm 6 mps 757 mmHg 74%
    23:00 +16°C° 0 mm 5 mps 758 mmHg 74%

    Tomorrow, 26 April, Friday

    Time Temperature Precipitation Wind Pressure Humidity
    00:00 +16°C° 0 mm 5 mps 758 mmHg 70%
    01:00 +15°C° 0 mm 5 mps 758 mmHg 66%
    02:00 +15°C° 0 mm 5 mps 758 mmHg 62%
    03:00 +14°C° 0 mm 4 mps 758 mmHg 59%
    04:00 +14°C° 0 mm 4 mps 758 mmHg 57%
    05:00 +14°C° 0 mm 4 mps 758 mmHg 54%
    06:00 +14°C° 0 mm 4 mps 758 mmHg 54%
    07:00 +14°C° 0 mm 4 mps 758 mmHg 54%
    08:00 +15°C° 0 mm 4 mps 759 mmHg 54%
    09:00 +15°C° 0 mm 5 mps 759 mmHg 55%
    10:00 +15°C° 0 mm 5 mps 760 mmHg 55%
    11:00 +15°C° 0 mm 6 mps 760 mmHg 56%
    12:00 +15°C° 0 mm 6 mps 760 mmHg 58%
    13:00 +14°C° 0 mm 6 mps 761 mmHg 60%
    14:00 +14°C° 0 mm 6 mps 761 mmHg 62%
    15:00 +15°C° 0 mm 5 mps 761 mmHg 61%
    16:00 +16°C° 0 mm 5 mps 761 mmHg 59%
    17:00 +18°C° 0 mm 4 mps 761 mmHg 58%
    18:00 +17°C° 0 mm 4 mps 761 mmHg 59%
    19:00 +15°C° 0 mm 4 mps 762 mmHg 60%
    20:00 +14°C° 0 mm 4 mps 762 mmHg 61%
    21:00 +14°C° 0 mm 4 mps 762 mmHg 60%
    22:00 +13°C° 0 mm 5 mps 763 mmHg 59%
    23:00 +12°C° 0 mm 5 mps 763 mmHg 58%

    Day after tomorrow, 27 April, Saturday

    Time Temperature Precipitation Wind Pressure Humidity
    00:00 +12°C° 0 mm 5 mps 763 mmHg 57%
    01:00 +12°C° 0 mm 5 mps 762 mmHg 57%
    02:00 +10°C° 0 mm 5 mps 762 mmHg 56%
    03:00 +10°C° 0 mm 5 mps 762 mmHg 55%
    04:00 +10°C° 0 mm 5 mps 761 mmHg 55%
    05:00 +9°C° 0 mm 5 mps 761 mmHg 54%
    06:00 +10°C° 0 mm 5 mps 761 mmHg 51%
    07:00 +11°C° 0 mm 6 mps 761 mmHg 49%
    08:00 +12°C° 0 mm 7 mps 761 mmHg 46%
    09:00 +15°C° 0 mm 7 mps 761 mmHg 44%
    10:00 +17°C° 0 mm 7 mps 760 mmHg 42%
    11:00 +18°C° 0 mm 8 mps 760 mmHg 40%
    12:00 +20°C° 0 mm 7 mps 759 mmHg 41%
    13:00 +21°C° 0 mm 7 mps 758 mmHg 42%
    14:00 +21°C° 0 mm 7 mps 757 mmHg 42%
    15:00 +22°C° 0 mm 7 mps 757 mmHg 44%
    16:00 +22°C° 0 mm 7 mps 756 mmHg 45%
    17:00 +22°C° 0 mm 7 mps 755 mmHg 47%
    18:00 +21°C° 0 mm 6 mps 756 mmHg 50%
    19:00 +20°C° 0 mm 5 mps 756 mmHg 54%
    20:00 +19°C° 0 mm 4 mps 756 mmHg 58%
    21:00 +18°C° 0 mm 4 mps 757 mmHg 58%
    22:00 +18°C° 0 mm 4 mps 757 mmHg 59%
    23:00 +17°C° 0 mm 5 mps 757 mmHg 59%

    28 April, Sunday

    Time Temperature Precipitation Wind Pressure Humidity
    00:00 +16°C° 0 mm 5 mps 757 mmHg 62%
    01:00 +15°C° 0 mm 5 mps 757 mmHg 65%
    02:00 +14°C° 0 mm 6 mps 757 mmHg 68%
    03:00 +14°C° 0.2 mm 5 mps 757 mmHg 73%
    04:00 +13°C° 0.2 mm 4 mps 757 mmHg 78%
    05:00 +13°C° 0.2 mm 3 mps 758 mmHg 82%
    06:00 +13°C° 0.2 mm 3 mps 758 mmHg 83%
    07:00 +13°C° 0.2 mm 3 mps 758 mmHg 85%
    08:00 +13°C° 0.2 mm 3 mps 759 mmHg 86%
    09:00 +14°C° 0.1 mm 3 mps 759 mmHg 83%
    10:00 +16°C° 0.1 mm 2 mps 759 mmHg 81%
    11:00 +16°C° 0.1 mm 2 mps 759 mmHg 78%
    12:00 +17°C° 0.1 mm 2 mps 759 mmHg 78%
    13:00 +17°C° 0.1 mm 2 mps 758 mmHg 77%
    14:00 +17°C° 0.1 mm 2 mps 758 mmHg 77%
    15:00 +18°C° 0 mm 2 mps 757 mmHg 74%
    16:00 +19°C° 0 mm 2 mps 757 mmHg 71%
    17:00 +19°C° 0 mm 2 mps 757 mmHg 69%
    18:00 +19°C° 0 mm 2 mps 757 mmHg 73%
    19:00 +19°C° 0 mm 1 mps 757 mmHg 76%
    20:00 +18°C° 0 mm 1 mps 757 mmHg 80%
    21:00 +18°C° 0.4 mm 1 mps 757 mmHg 83%
    22:00 +17°C° 0.4 mm 2 mps 757 mmHg 86%
    23:00 +17°C° 0.4 mm 2 mps 757 mmHg 89%

    29 April, Monday

    Time Temperature Precipitation Wind Pressure Humidity
    00:00 +17°C° 1.5 mm 2 mps 757 mmHg 91%
    01:00 +16°C° 1.5 mm 2 mps 757 mmHg 93%
    02:00 +16°C° 1.5 mm 2 mps 756 mmHg 94%
    03:00 +16°C° 1.3 mm 2 mps 756 mmHg 94%
    04:00 +16°C° 1.3 mm 2 mps 756 mmHg 94%
    05:00 +16°C° 1.3 mm 3 mps 756 mmHg 94%
    06:00 +16°C° 0.2 mm 2 mps 756 mmHg 92%
    07:00 +17°C° 0.2 mm 2 mps 756 mmHg 91%
    08:00 +17°C° 0.2 mm 2 mps 757 mmHg 89%
    09:00 +17°C° 1 mm 2 mps 757 mmHg 88%
    10:00 +17°C° 1 mm 2 mps 757 mmHg 88%
    11:00 +17°C° 1 mm 2 mps 757 mmHg 88%
    12:00 +17°C° 1.3 mm 2 mps 756 mmHg 89%
    13:00 +17°C° 1.3 mm 2 mps 756 mmHg 90%
    14:00 +17°C° 1.3 mm 2 mps 755 mmHg 91%
    15:00 +16°C° 0.9 mm 2 mps 755 mmHg 92%
    16:00 +16°C° 0.9 mm 2 mps 755 mmHg 92%
    17:00 +16°C° 0.9 mm 2 mps 755 mmHg 92%
    18:00 +16°C° 0 mm 2 mps 755 mmHg 93%
    19:00 +16°C° 0 mm 1 mps 755 mmHg 93%
    20:00 +16°C° 0 mm 1 mps 755 mmHg 94%
    21:00 +16°C° 0 mm 1 mps 755 mmHg 94%
    22:00 +16°C° 0 mm 1 mps 756 mmHg 93%
    23:00 +16°C° 0 mm 1 mps 756 mmHg 93%

    30 April, Tuesday

    Time Temperature Precipitation Wind Pressure Humidity
    00:00 +16°C° 0 mm 1 mps 756 mmHg 94%
    01:00 +15°C° 0 mm 1 mps 755 mmHg 94%
    02:00 +15°C° 0 mm 1 mps 755 mmHg 94%
    03:00 +15°C° 0 mm 1 mps 756 mmHg 94%
    04:00 +15°C° 0 mm 1 mps 756 mmHg 95%
    05:00 +15°C° 0 mm 2 mps 756 mmHg 95%
    06:00 +16°C° 0 mm 2 mps 757 mmHg 91%
    07:00 +17°C° 0 mm 3 mps 757 mmHg 86%
    08:00 +18°C° 0 mm 3 mps 758 mmHg 82%
    09:00 +19°C° 0 mm 4 mps 758 mmHg 79%
    10:00 +20°C° 0 mm 5 mps 758 mmHg 77%
    11:00 +20°C° 0 mm 5 mps 758 mmHg 74%
    12:00 +22°C° 0 mm 5 mps 758 mmHg 64%
    13:00 +23°C° 0 mm 5 mps 757 mmHg 54%
    14:00 +26°C° 0 mm 6 mps 757 mmHg 44%
    15:00 +25°C° 0 mm 5 mps 757 mmHg 43%
    16:00 +25°C° 0 mm 5 mps 757 mmHg 43%
    17:00 +23°C° 0 mm 5 mps 757 mmHg 42%
    18:00 +22°C° 0 mm 4 mps 757 mmHg 46%
    19:00 +21°C° 0 mm 3 mps 758 mmHg 51%
    20:00 +19°C° 0 mm 3 mps 758 mmHg 55%
    21:00 +18°C° 0 mm 3 mps 758 mmHg 58%
    22:00 +18°C° 0 mm 3 mps 759 mmHg 60%
    23:00 +17°C° 0 mm 3 mps 759 mmHg 63%
    Show more